Other Surface Observations
Issued by NWS

Home | Current Version | Previous Version | Text Only | Print | Product List | Glossary On
Versions: 1 2 3 4 5 6 7 8 9 10 11 12 13 14 15 16 17 18 19 20 21 22 23 24 25 26 27 28 29 30 31 32 33 34 35 36 37 38 39 40 41 42 43 44 45 46 47 48 49 50
000
SXUS52 KTAE 260318
OSOTAE
OSOTAE
North Florida/South Alabama/Southwest Georgia Weather Roundup
National Weather Service Tallahassee Florida
1100 PM EDT TUE JUL 25 2017

Note: "fair" indicates few or no clouds below 12,000 feet with no
significant weather and/or obstructions to visibility.

!FLZ017-115-028-034-025-260400
...North Florida...

CITY           SKY/WX    TMP DP  RH WIND       PRES   REMARKS
TALLAHASSEE    CLOUDY    78  76  93 CALM      30.08S
APALACHICOLA   PTCLDY    80  77  90 CALM      30.09R
PERRY          MOCLDY    76  74  95 CALM      30.10S
CROSS CITY     CLEAR     79  76  91 CALM      30.13F
JACKSONVILLE   CLOUDY    80  75  84 N7        30.10R
$$

!FLZ112-006-005-002-011-260400
...Florida Panhandle...

CITY           SKY/WX    TMP DP  RH WIND       PRES   REMARKS
MARIANNA       PTCLDY    77  76  96 CALM      30.08S
BONIFAY        NOT AVBL
PANAMA CITY NW FAIR      77  75  93 CALM      30.08S
TYNDALL AFB    PTCLDY    77  74  90 CALM      30.09R
TYND DRONE APT FAIR      77  74  91 CALM      30.09S
DE FUNIAK SPR  FAIR      76  74  95 N5        30.11R
EGLIN AFB      PTCLDY    80  74  82 NW6       30.09R
DESTIN         CLOUDY    84  72  67 CALM      30.09R
HURLBURT       PTCLDY    79  75  90 N5        30.08R
CRESTVIEW      PTCLDY    77  73  87 CALM      30.12R
PENSACOLA      CLEAR     79  73  82 N6        30.10R
$$

!ALZ063-066-260400
...South Alabama...

CITY           SKY/WX    TMP DP  RH WIND       PRES   REMARKS
DOTHAN         PTCLDY    77  76  96 W6        30.14R
OZARK CAIRNS   PTCLDY    77  73  90 CALM      30.09S
FT RUCKER HELI PTCLDY    74  73  97 CALM      30.10S
RUCKER HELI 3  FAIR      75  73  93 NW5       30.10S
RUCKER HELI 2  FAIR      75  74  97 CALM      30.10R
FLORALA APT    CLOUDY    74  72  93 CALM      30.12S FOG
ANDALUSIA      MOCLDY    77  73  87 NW3       30.10S
TROY           PTCLDY    75  75 100 CALM      30.12R
EUFALA         MOCLDY    78  76  93 CALM      30.10R
MOBILE         CLOUDY    76  73  91 NW5       30.12R
$$

!GAZ120>161-260400
...Southwest and South Central Georgia...

CITY           SKY/WX    TMP DP  RH WIND       PRES   REMARKS
THOMASVILLE    FAIR      77  77 100 CALM      30.11R
BAINBRIDGE     CLOUDY    77  77 100 CALM      30.09S
MOODY AFB      CLOUDY    77  75  94 CALM      30.09R
VALDOSTA       CLOUDY    73  73 100 CALM      30.10R
MOULTRIE       MOCLDY    75  73  94 CALM      30.10S
BLAKELY        PTCLDY    79  75  89 CALM      30.10R
ALBANY         MOCLDY    77  76  96 CALM      30.11S
TIFTON         FAIR      76  76 100 CALM      30.10R
FITZGERALD     LGT RAIN  77  77  98 CALM      30.12R
CORDELE        MOCLDY    82  78  89 CALM      30.11S HX  90
AMERICUS       FAIR      77  77 100 CALM      30.13R
HOMERVILLE     FAIR      77  77 100 CALM      30.10S
$$

!GMZ750-755-770-775-260400
...Coastal and Buoy Obs...

STATION/POSITION TIME  TEMP    WIND        PRES    VSBY  WAVE
                       AIR SEA DIR/SP/G                  HT/PER
                 (UTC) (F)     (DEG/KT/KT) (MB)    (MI)  (FT/S)
KEATON BEACH     0300   79      80/  2/  2 1018.5R
CEDAR KEY        0300   84     290/  6/  7 1019.3S
C TOWER          NOT AVBL
APALACHICOLA BUO 0250   84 86  300/  6/  8 1019.3R         2/ 5
PANAMA CITY BUOY 0250   84 85  290/  8/ 10 1019.2R         2/ 4
MOBILE BUOY      0300   84 86  310/  6/  8 1019.5
ORANGE BCH AL BU 0250   81 83  330/  8/ 10 1018.7R         2/ 4
$$




USA.gov is the U.S. government's official web portal to all federal, state and local government web resources and services.